Regional Weather Roundup
Issued by NWS

Home | Current Version | Previous Version | Graphics & Text | Print | Product List | Glossary Off
Versions: 1 2 3 4 5 6 7 8 9 10 11 12 13 14 15 16 17 18 19 20 21 22 23 24 25 26 27 28 29 30 31 32 33 34 35 36 37 38 39 40 41 42 43 44 45 46 47 48 49 50

000
ASUS44 KFWD 200815
RWRTX
NORTH TEXAS HOURLY WEATHER ROUNDUP
NATIONAL WEATHER SERVICE FORT WORTH TX
300 AM CDT SUN APR 20 2014

NOTE: "FAIR" INDICATES FEW OR NO CLOUDS BELOW 12,000 FEET WITH NO
SIGNIFICANT WEATHER AND/OR OBSTRUCTIONS TO VISIBILITY.

TXZ118-119-200900-
DALLAS/FORT WORTH METROPLEX

CITY           SKY/WX    TMP DP  RH WIND       PRES   REMARKS
DFW AIRPORT    CLOUDY    63  54  72 E6        30.09F
DALLAS LOVE    CLOUDY    64  54  69 SE6       30.10F
FTW MEACHAM    CLOUDY    62  55  77 SE6       30.09F
DAL-EXECUTIVE  CLOUDY    63  54  72 CALM      30.10F
FTW-ALLIANCE   CLOUDY    62  54  74 S6        30.08F
FTW-NAS-JRB    CLOUDY    65  52  62 VRB6      30.14F
FTW-SPINKS     CLOUDY    61  54  78 CALM      30.12F
ARLINGTON      CLOUDY    61  55  81 SE3       30.10F
GRAND PRAIRIE  CLOUDY    63  54  72 CALM      30.13F
ADDISON        CLOUDY    66  53  63 SE6       30.12F
MESQUITE       CLOUDY    59  53  80 CALM      30.12F
LANCASTER      CLOUDY    59  53  79 CALM      30.12F
$$

TXZ091>094-102>105-117-120-121-131>134-200900-
NORTH CENTRAL TEXAS

CITY           SKY/WX    TMP DP  RH WIND       PRES   REMARKS
SHRMAN/DENISON MOCLDY    63  51  64 SE8       30.12F
GAINESVILLE    CLOUDY    58  53  82 E5        30.11F
BOWIE          DRIZZLE   62  55  78 SE5       30.07F
BRIDGEPORT     CLOUDY    64  51  61 SE8       30.09F
DECATUR        CLOUDY    64  52  66 SE8       30.08F
DENTON         CLOUDY    61  54  77 SE8       30.08F
MCKINNEY       CLOUDY    58  53  84 CALM      30.12F
GREENVILLE     MOCLDY    55  52  88 CALM      30.13F
ROCKWALL       CLOUDY    63  55  73 E3        30.11F
TERRELL        CLOUDY    60  58  92 CALM      30.13F
WAXAHACHIE     CLOUDY    60  53  76 CALM      30.13F
CLEBURNE       CLOUDY    63  57  82 S6        30.14F
GRANBURY       CLOUDY    63  55  77 SE7       30.11F
$$

TXZ083>090-098>101-113>116-127>130-139>142-154-155-200900-
WESTERN NORTH TEXAS

CITY           SKY/WX    TMP DP  RH WIND       PRES   REMARKS
WICHITA FALLS  CLOUDY    63  52  67 S6        30.05F
WF-KICKAPOO    LGT RAIN  64  53  67 SE6       30.06F
VERNON         MOCLDY    65  51  61 S8        30.04F
ABILENE        CLOUDY    64  52  64 SE14      30.06F
ABILENE-DYESS  CLOUDY    62  55  80 S5        30.06F
BRECKENRIDGE   CLOUDY    69  53  56 S14G24    30.05S THUNDER
GRAHAM         CLOUDY    64  54  70 SE9       30.04S
MINERAL WELLS  CLOUDY    61  54  77 SE10      30.07F
STEPHENVILLE   MOCLDY    60  52  75 SE5       30.12F
COMANCHE       PTCLDY    58  53  81 SE7       30.09F
BROWNWOOD      CLOUDY    64  54  68 SE9       30.09S
COLEMAN        CLOUDY    64  53  68 S5        30.09R
BRADY          CLOUDY    64  54  68 SE6       30.09R
$$

TXZ143>147-156>162-174-175-200900-
CENTRAL TEXAS

CITY           SKY/WX    TMP DP  RH WIND       PRES   REMARKS
WACO           CLOUDY    63  56  78 S6        30.12S
WACO-MCGREGOR  MOCLDY    63  54  72 S6        30.14S
HILLSBORO      CLOUDY    65  54  65 SE7       30.13S
CORSICANA      CLOUDY    65  57  75 S8        30.14S
MEXIA          CLOUDY    63  58  85 CALM      30.13S
HEARNE         MOCLDY    61  58  90 CALM      30.14S
CAMERON        CLOUDY    62  57  82 S5        30.13S
TEMPLE         MOCLDY    61  52  72 S6        30.15F
KILLEEN        PTCLDY    61  54  77 S6        30.12S
KILLEEN-SKYLRK MOCLDY   N/A N/A N/A CALM      30.10S
FORT HOOD      MOCLDY    62  55  77 SE5       30.12F
GATESVILLE     CLOUDY    59  54  82 CALM      30.14F
HAMILTON       MOCLDY    60  53  79 S6        30.12F
LAMPASAS       MOCLDY    61  55  83 SE5       30.11F
$$

TXZ095>097-106>112-122>126-135>138-148>153-164>167-200900-
EAST TEXAS

CITY           SKY/WX    TMP DP  RH WIND       PRES   REMARKS
PARIS          MOCLDY    57  50  77 SE3       30.14F
SULPHUR SPRNGS MOCLDY    62  53  73 CALM      30.16S
CLARKSVILLE    PTCLDY    56  53  90 CALM      30.14S
MOUNT PLEASANT PTCLDY    57  55  92 CALM      30.16R
GILMER         MOCLDY    59  55  88 CALM      30.16R
MINEOLA        PTCLDY    55  55 100 CALM      30.15S FOG
TYLER          MOCLDY    62  54  74 SE5       30.14S
LONGVIEW       MOCLDY    59  55  87 CALM      30.14R
MARSHALL       PTCLDY    56  53  91 CALM      30.16R
ATHENS         CLOUDY    59  55  88 CALM      30.13S
PALESTINE      MOCLDY    62  55  79 CALM      30.16S
JACKSONVILLE   CLOUDY    63  54  73 S3        30.16S
HENDERSON      CLOUDY    59  55  86 CALM      30.16R
NACOGDOCHES    PTCLDY    54  50  87 CALM      30.15S
LUFKIN         PTCLDY    60  56  86 CALM      30.14F
$$

SUPPLEMENTAL OBSERVATIONS (CENTRAL)

CITY           SKY/WX    TMP DP  RH WIND       PRES   REMARKS
LAKE TEXOMA      N/A     57  55  94 E3          N/A
PAT MAYSE LAKE   N/A     61  52  72 SE5         N/A
GREENVILLE       N/A     61  52  72 SE3         N/A
CEDAR HILL       N/A     66  54  63 SE6         N/A
ATHENS           N/A     63  57  82 SE3         N/A
PALESTINE        N/A     63  57  82 CALM        N/A
LAKE LIMESTONE   N/A     61  57  88 CALM        N/A
MCGREGOR         N/A     61  54  77 S3          N/A
TEMPLE           N/A     61  55  82 S5          N/A
$$

SUPPLEMENTAL OBSERVATIONS (WEST)

CITY           SKY/WX    TMP DP  RH WIND       PRES   REMARKS
MILLERS CREEK    N/A     63  54  72 S6          N/A
POSSUM KINGDOM   N/A     64  52  63 SE10        N/A
GRANBURY         N/A     63  55  77 SE7         N/A
COMANCHE         N/A     57  52  82 SE7         N/A
HAMBY            N/A     64  52  63 S9          N/A
IVIE RESERVOIR   N/A     64  50  59 SE3G15      N/A
COLORADO BEND    N/A     63  54  72 SE5         N/A
$$

SUPPLEMENTAL OBSERVATIONS (EAST)

CITY           SKY/WX    TMP DP  RH WIND       PRES   REMARKS
CLARKSVILLE      N/A     59  50  72 SE1         N/A
TEXARKANA        N/A     48  46  93 CALM        N/A
LINDEN           N/A     54  50  87 CALM        N/A
CADDO LAKE       N/A     54  52  94 CALM        N/A
GILMER           N/A     55  52  88 CALM        N/A
HENDERSON        N/A     57  54  88 CALM        N/A
LUFKIN           N/A     57  55  94 MISG        N/A
N SABINE NF      N/A     54  52  94 MISG        N/A
S SABINE NF      N/A     55  54  94 CALM        N/A
$$

SUPPLEMENTAL OBSERVATIONS ARE A COLLECTION OF AUTOMATED INSTRUMENTS
THAT ARE MAINTAINED BY A VARIETY OF FEDERAL AND STATE AGENCIES.
CERTAIN ELEMENTS...SUCH AS HUMIDITY VALUES AND SUSTAINED WIND
SPEEDS...MAY BE APPROXIMATED.




USA.gov is the U.S. government's official web portal to all federal, state and local government web resources and services.